Wetbulb
63.39 63.55 63.80 64.89 67.41 67.89 67.90 67.52 67.59 67.63 67.36 67.30 67.72 66.49 66.06 66.22 64.70 62.83 62.21 61.19 60.24 59.26
63.85 63.77 64.20 66.74 67.77 67.54 67.39 67.72 67.68 67.36 66.94 67.00 66.78 66.56 65.25 65.31 63.60 62.61 61.69 61.12 60.38 58.95
64.84 65.32 66.78 67.75 67.20 67.12 67.05 67.96 66.83 66.49 66.62 66.42 67.11 65.44 64.20 63.26 62.89 61.85 60.92 60.64 59.87 59.38
65.24 66.56 68.29 67.86 67.16 67.12 67.41 67.07 67.12 67.10 66.80 66.89 66.07 64.88 63.23 62.24 61.84 61.67 60.36 60.32 59.82 59.65
67.16 68.22 68.33 67.38 67.05 67.21 66.62 67.27 67.50 67.41 67.10 66.40 65.83 63.62 62.30 61.61 62.16 61.39 59.96 59.66 59.36 59.75
67.12 68.38 68.38 67.63 67.63 67.09 67.43 67.07 66.81 66.46 65.80 65.38 64.56 62.94 61.78 61.97 61.83 60.90 60.37 59.87 59.09 59.29
66.37 66.66 66.91 67.75 67.95 67.52 66.85 66.10 65.35 65.13 64.96 64.80 63.79 62.91 63.15 62.19 61.01 60.84 60.44 60.25 59.49 59.14
65.66 65.71 65.64 64.82 65.07 65.35 66.42 66.02 65.58 63.63 63.32 63.68 64.11 62.93 62.08 61.56 60.95 60.09 59.13 59.06 58.83 58.24
65.18 65.62 65.29 64.32 62.53 62.47 62.19 62.12 61.40 60.83 60.85 60.53 60.45 52.25 55.26 60.25 60.21 59.69 58.64 57.32 57.11 57.75
64.98 64.84 64.10 62.81 62.14 60.51 59.90 59.72 58.99 58.35 58.81 58.48 55.74 47.55 49.91 53.35 60.28 58.82 57.96 57.12 56.53 57.90
64.42 63.24 62.75 61.41 60.33 60.01 59.83 59.98 59.23 58.63 57.55 55.34 52.71 48.09 49.91 53.71 59.70 58.34 58.20 57.55 57.13 57.57
63.45 62.02 60.73 60.08 59.91 60.32 61.63 62.00 61.06 58.90 55.92 54.12 53.66 47.55 49.18 55.99 58.78 58.12 57.58 57.72 58.24 58.47
62.45 61.26 60.24 60.11 60.35 61.74 61.68 61.46 60.28 57.84 56.11 53.92 54.71 45.74 46.10 53.89 58.92 57.24 58.20 57.60 56.09 48.07
61.89 60.75 60.70 60.45 61.52 59.96 61.27 60.98 59.80 57.72 55.91 55.51 55.11 50.75 44.29 48.82 59.48 58.90 57.39 57.64 56.35 54.18
MSLP
998.40 999.04 999.55 999.83 1000.26 1000.79 1001.43 1001.89 1002.48 1003.01 1003.45 1003.94 1004.54 1004.93 1005.38 1005.87 1006.40 1006.97 1007.55 1008.15 1008.50 1008.89
997.73 998.42 998.95 999.18 999.66 1000.25 1000.90 1001.56 1002.24 1002.68 1003.26 1003.70 1004.16 1004.63 1005.19 1005.74 1006.44 1006.95 1007.52 1007.97 1008.30 1008.68
997.13 997.66 998.17 998.68 999.22 999.92 1000.66 1001.28 1001.95 1002.61 1003.04 1003.58 1004.04 1004.52 1005.13 1005.82 1006.43 1007.00 1007.52 1007.88 1008.25 1008.51
996.74 997.28 997.78 998.36 998.89 999.65 1000.22 1001.00 1001.68 1002.31 1002.93 1003.44 1003.99 1004.62 1005.24 1005.85 1006.42 1006.96 1007.42 1007.71 1008.11 1008.40
996.32 996.96 997.60 998.19 998.71 999.38 999.93 1000.78 1001.52 1002.12 1002.74 1003.31 1003.89 1004.52 1005.23 1005.82 1006.27 1006.71 1007.22 1007.60 1008.01 1008.18
996.00 996.71 997.32 997.99 998.55 999.15 999.87 1000.65 1001.34 1001.93 1002.59 1003.23 1003.91 1004.61 1005.10 1005.49 1005.95 1006.46 1006.98 1007.45 1007.75 1008.01
996.04 996.54 997.09 997.79 998.37 998.92 999.81 1000.51 1001.20 1001.80 1002.51 1003.20 1003.82 1004.38 1004.83 1005.23 1005.79 1006.24 1006.71 1007.15 1007.52 1007.85
996.06 996.79 997.26 997.72 998.49 999.16 999.89 1000.39 1000.97 1001.99 1002.57 1003.10 1003.63 1004.05 1004.60 1005.09 1005.66 1006.23 1006.80 1007.25 1007.46 1007.70
996.16 996.73 997.42 997.96 998.73 999.14 1000.17 1000.84 1001.42 1002.22 1002.72 1003.27 1003.68 1003.96 1004.42 1004.95 1005.74 1006.31 1006.76 1007.18 1007.53 1007.73
996.06 996.94 997.71 998.35 999.08 999.95 1000.61 1001.20 1001.80 1002.26 1002.85 1003.58 1004.24 1004.59 1004.63 1005.04 1005.62 1006.24 1006.69 1007.11 1007.47 1007.65
995.86 997.09 997.90 998.69 999.42 1000.09 1000.79 1001.36 1002.01 1002.70 1003.36 1003.92 1004.75 1004.98 1005.09 1005.32 1005.67 1006.23 1006.68 1007.03 1007.28 1007.56
995.97 997.26 998.18 998.92 999.56 1000.19 1001.00 1001.74 1002.42 1003.02 1003.81 1004.29 1004.97 1005.27 1005.40 1005.43 1005.82 1006.42 1006.88 1007.07 1007.31 1007.51
996.47 997.32 998.23 998.98 999.74 1000.34 1000.92 1001.89 1002.67 1003.58 1003.95 1004.54 1004.97 1005.42 1005.55 1005.60 1005.98 1006.58 1007.02 1007.25 1007.55 1007.62
996.76 997.51 998.33 999.11 999.80 1000.54 1001.26 1002.03 1002.93 1003.67 1004.35 1004.75 1005.10 1005.58 1005.65 1005.73 1006.00 1006.49 1006.99 1007.29 1007.64 1007.82
Wind_Speed
12 9 8 8 6 7 8 8 8 8 8 7 7 6 6 5 4 6 5 6 4 3
10 9 9 9 9 8 7 7 9 9 8 7 7 8 7 6 6 5 5 5 5 3
12 12 9 9 10 11 8 9 9 8 7 7 8 8 7 5 5 6 4 4 6 4
8 9 9 9 10 11 11 9 10 9 8 9 9 8 7 6 6 6 6 4 6 6
9 9 10 10 11 11 11 9 10 10 9 10 10 7 7 7 6 7 7 6 6 6
9 10 11 10 12 11 12 11 10 10 11 10 9 8 7 7 7 6 7 6 6 6
9 10 11 12 13 12 11 12 11 11 10 9 8 7 7 7 6 7 6 6 6 6
10 10 12 12 11 11 12 12 12 8 7 7 8 6 7 7 7 7 6 5 5 5
13 13 13 12 9 10 9 8 8 7 8 7 4 6 11 9 7 6 7 6 5 4
14 13 12 12 10 9 9 9 8 8 8 7 6 7 9 9 6 7 6 6 5 4
16 13 12 11 10 8 7 9 8 8 7 8 5 7 9 10 6 5 5 5 5 5
15 14 11 10 9 7 10 9 7 7 8 8 5 6 6 8 6 6 5 4 4 4
13 13 11 10 9 6 9 9 9 7 6 8 6 4 3 4 5 6 4 4 3 4
12 11 11 9 9 8 9 10 9 8 5 6 7 4 1 9 5 6 5 3 3 1
Wind_Direction
203 202 196 178 170 173 176 168 164 163 163 171 166 156 152 138 141 152 149 160 162 168
192 185 189 172 163 162 158 161 160 160 170 162 147 150 142 136 144 144 148 172 170 158
189 186 172 155 155 162 154 158 156 157 154 144 147 140 133 130 142 146 165 164 165 170
170 162 150 158 159 163 153 151 158 154 144 143 143 143 135 148 152 166 170 166 173 189
159 148 157 161 158 153 150 150 148 146 145 146 149 144 148 158 167 169 175 183 177 191
155 158 163 157 150 148 145 144 146 141 144 149 155 159 166 168 165 167 170 177 182 185
144 152 150 146 145 146 145 144 143 145 153 158 159 168 171 155 166 166 175 177 178 171
130 125 127 124 126 141 146 149 149 149 151 150 165 175 150 157 163 154 144 156 172 178
136 129 121 120 115 113 127 132 124 134 137 131 118 143 151 139 138 143 153 163 168 167
134 132 136 128 134 128 128 127 129 117 119 111 108 105 118 129 138 151 158 155 166 178
133 134 134 130 130 121 127 129 125 116 107 117 103 124 126 150 142 132 149 166 174 181
132 134 136 130 128 124 123 123 119 120 129 117 131 135 141 142 126 129 144 153 158 168
137 140 136 131 131 124 125 128 123 121 119 134 139 129 152 154 126 128 140 125 117 47
143 138 134 124 128 124 120 119 118 116 117 123 134 114 107 169 142 143 149 144 153 163